| time (UTC) | temp C | wind direction | speed KPH | gust KPH | rain 1hr cm | rain 24hr cm | rain mn cm | humidity % | barometer mb |
| 20260506015008 | 10 | 317 | 8.0 | 29.0 | 0.00 | 0.00 | 0.00 | 75 | 1010.6 |
| 20260506014525 | 10 | 19 | 8.0 | 17.7 | 0.00 | 0.00 | 0.00 | 75 | 1010.7 |
| 20260506014008 | 10 | 33 | 8.0 | 17.7 | 0.00 | 0.00 | 0.00 | 75 | 1010.7 |
| 20260506013507 | 10 | 23 | 6.4 | 20.9 | 0.00 | 0.00 | 0.00 | 75 | 1010.4 |
| 20260506013024 | 10 | 49 | 11.3 | 24.1 | 0.00 | 0.00 | 0.00 | 75 | 1010.2 |
| 20260506012504 | 10 | 10 | 12.9 | 24.1 | 0.00 | 0.00 | 0.00 | 75 | 1010.0 |
| 20260506012004 | 10 | 37 | 8.0 | 24.1 | 0.00 | 0.00 | 0.00 | 75 | 1009.9 |
| 20260506011525 | 10 | 51 | 11.3 | 24.1 | 0.00 | 0.00 | 0.00 | 74 | 1010.1 |
| 20260506011007 | 10 | 38 | 11.3 | 25.7 | 0.00 | 0.00 | 0.00 | 74 | 1010.3 |
| 20260506010507 | 10 | 76 | 11.3 | 29.0 | 0.00 | 0.00 | 0.00 | 74 | 1010.2 |
| 20260506010022 | 10 | 36 | 16.1 | 29.0 | 0.00 | 0.00 | 0.00 | 74 | 1010.1 |
| 20260506005502 | 10 | 360 | 11.3 | 29.0 | 0.00 | 0.00 | 0.00 | 73 | 1009.8 |
| 20260506005009 | 10 | 20 | 16.1 | 29.0 | 0.00 | 0.00 | 0.00 | 73 | 1010.1 |
| 20260506004523 | 10 | 23 | 9.7 | 25.7 | 0.00 | 0.00 | 0.00 | 73 | 1010.0 |
| 20260506004004 | 11 | 4 | 12.9 | 25.7 | 0.00 | 0.00 | 0.00 | 72 | 1009.9 |
| 20260506003509 | 11 | 33 | 11.3 | 27.4 | 0.00 | 0.00 | 0.00 | 72 | 1009.9 |
| 20260506003012 | 11 | 348 | 11.3 | 29.0 | 0.00 | 0.00 | 0.00 | 71 | 1010.1 |
| 20260506002510 | 11 | 63 | 14.5 | 27.4 | 0.00 | 0.00 | 0.00 | 71 | 1010.0 |
| 20260506002008 | 11 | 29 | 14.5 | 25.7 | 0.00 | 0.00 | 0.00 | 71 | 1010.0 |
| 20260506001508 | 11 | 19 | 9.7 | 25.7 | 0.00 | 0.00 | 0.00 | 71 | 1009.6 |
| 20260506001007 | 11 | 52 | 11.3 | 25.7 | 0.00 | 0.00 | 0.00 | 71 | 1009.6 |
| 20260506000507 | 11 | 25 | 11.3 | 30.6 | 0.00 | 0.00 | 0.00 | 71 | 1009.7 |
| 20260506000041 | 11 | 49 | 9.7 | 30.6 | 0.00 | 0.00 | 0.00 | 71 | 1009.6 |
| 20260505235506 | 11 | 18 | 8.0 | 38.6 | 0.00 | 0.00 | 0.00 | 70 | 1009.7 |
| 20260505235007 | 11 | 48 | 17.7 | 38.6 | 0.00 | 0.00 | 0.00 | 70 | 1009.7 |
| 20260505234526 | 11 | 24 | 17.7 | 27.4 | 0.00 | 0.00 | 0.00 | 71 | 1009.8 |
| 20260505234008 | 11 | 34 | 14.5 | 27.4 | 0.00 | 0.00 | 0.00 | 71 | 1009.7 |
| 20260505233504 | 11 | 343 | 16.1 | 27.4 | 0.00 | 0.00 | 0.00 | 70 | 1009.7 |
| 20260505233023 | 11 | 39 | 12.9 | 30.6 | 0.00 | 0.00 | 0.00 | 70 | 1009.6 |
| 20260505232511 | 11 | 21 | 17.7 | 30.6 | 0.00 | 0.00 | 0.00 | 70 | 1009.3 |
| 20260505232011 | 11 | 32 | 9.7 | 25.7 | 0.00 | 0.00 | 0.00 | 70 | 1009.4 |
| 20260505231528 | 11 | 26 | 14.5 | 27.4 | 0.00 | 0.00 | 0.00 | 70 | 1009.3 |
| 20260505231003 | 11 | 14 | 12.9 | 27.4 | 0.00 | 0.00 | 0.00 | 70 | 1009.3 |
| 20260505230506 | 11 | 20 | 12.9 | 25.7 | 0.00 | 0.00 | 0.00 | 70 | 1009.2 |
| 20260505230032 | 11 | 13 | 14.5 | 30.6 | 0.00 | 0.00 | 0.00 | 69 | 1009.1 |
| 20260505225504 | 11 | 23 | 16.1 | 32.2 | 0.00 | 0.00 | 0.00 | 69 | 1009.1 |
| 20260505225014 | 11 | 334 | 11.3 | 32.2 | 0.00 | 0.00 | 0.00 | 69 | 1009.0 |
| 20260505224516 | 11 | 33 | 6.4 | 30.6 | 0.00 | 0.00 | 0.00 | 69 | 1008.6 |
| 20260505224009 | 11 | 304 | 16.1 | 30.6 | 0.00 | 0.00 | 0.00 | 69 | 1008.5 |
| 20260505223509 | 11 | 42 | 11.3 | 29.0 | 0.00 | 0.00 | 0.00 | 70 | 1008.7 |
| 20260505223014 | 11 | 348 | 14.5 | 29.0 | 0.00 | 0.00 | 0.00 | 69 | 1008.8 |
| 20260505222511 | 11 | 344 | 11.3 | 30.6 | 0.00 | 0.00 | 0.00 | 70 | 1008.6 |
| 20260505222013 | 11 | 4 | 17.7 | 30.6 | 0.00 | 0.00 | 0.00 | 70 | 1008.3 |
| 20260505221512 | 12 | 44 | 14.5 | 37.0 | 0.00 | 0.00 | 0.00 | 71 | 1008.2 |
| 20260505221006 | 11 | 31 | 9.7 | 32.2 | 0.00 | 0.00 | 0.00 | 71 | 1008.2 |
| 20260505220506 | 12 | 20 | 20.9 | 32.2 | 0.00 | 0.00 | 0.00 | 70 | 1008.4 |
| 20260505220029 | 12 | 6 | 16.1 | 30.6 | 0.00 | 0.00 | 0.00 | 70 | 1008.5 |
| 20260505215506 | 12 | 48 | 12.9 | 29.0 | 0.00 | 0.00 | 0.00 | 70 | 1008.5 |
| 20260505215006 | 12 | 24 | 8.0 | 29.0 | 0.00 | 0.00 | 0.00 | 71 | 1008.3 |
| 20260505214526 | 12 | 67 | 16.1 | 29.0 | 0.00 | 0.00 | 0.00 | 71 | 1008.2 |
| 20260505214011 | 12 | 7 | 16.1 | 27.4 | 0.00 | 0.00 | 0.00 | 71 | 1008.2 |
| 20260505213507 | 12 | 25 | 14.5 | 27.4 | 0.00 | 0.00 | 0.00 | 71 | 1008.4 |
| 20260505213028 | 12 | 39 | 9.7 | 38.6 | 0.00 | 0.00 | 0.00 | 72 | 1008.6 |
| 20260505212506 | 12 | 18 | 14.5 | 38.6 | 0.00 | 0.00 | 0.00 | 72 | 1008.6 |
| 20260505212013 | 12 | 18 | 19.3 | 29.0 | 0.00 | 0.00 | 0.00 | 72 | 1008.5 |
| 20260505211530 | 12 | 15 | 12.9 | 32.2 | 0.00 | 0.00 | 0.00 | 73 | 1008.4 |
| 20260505211005 | 12 | 296 | 19.3 | 32.2 | 0.00 | 0.00 | 0.00 | 73 | 1008.1 |
| 20260505210508 | 12 | 50 | 6.4 | 27.4 | 0.00 | 0.00 | 0.00 | 74 | 1007.9 |
| 20260505210022 | 12 | 54 | 14.5 | 30.6 | 0.00 | 0.00 | 0.00 | 74 | 1007.7 |
| 20260505205508 | 12 | 40 | 17.7 | 30.6 | 0.00 | 0.00 | 0.00 | 75 | 1007.7 |
| 20260505205011 | 12 | 4 | 12.9 | 30.6 | 0.00 | 0.00 | 0.00 | 75 | 1007.8 |
| 20260505204517 | 12 | 20 | 11.3 | 30.6 | 0.00 | 0.00 | 0.00 | 1007.9 | |
| 20260505204008 | 12 | 321 | 12.9 | 27.4 | 0.00 | 0.00 | 0.00 | 76 | 1008.3 |
| 20260505203508 | 12 | 8 | 12.9 | 27.4 | 0.00 | 0.00 | 0.00 | 76 | 1008.2 |
| 20260505203018 | 12 | 279 | 9.7 | 22.5 | 0.00 | 0.00 | 0.00 | 76 | 1008.2 |
| 20260505202511 | 12 | 314 | 11.3 | 24.1 | 0.00 | 0.00 | 0.00 | 75 | 1008.1 |
| 20260505202003 | 12 | 9 | 9.7 | 25.7 | 0.00 | 0.00 | 0.00 | 75 | 1007.9 |
| 20260505201513 | 13 | 303 | 11.3 | 29.0 | 0.00 | 0.00 | 0.00 | 1007.7 | |
| 20260505201004 | 13 | 2 | 14.5 | 29.0 | 0.00 | 0.00 | 0.00 | 1007.6 | |
| 20260505200508 | 13 | 37 | 9.7 | 27.4 | 0.00 | 0.00 | 0.00 | 1007.7 | |
| 20260505200012 | 13 | 23 | 16.1 | 40.2 | 0.00 | 0.00 | 0.00 | 1007.8 | |
| 20260505195504 | 13 | 40 | 16.1 | 40.2 | 0.00 | 0.00 | 0.00 | 76 | 1007.7 |
| 20260505195005 | 13 | 25 | 11.3 | 32.2 | 0.00 | 0.00 | 0.00 | 76 | 1007.7 |
| 20260505194529 | 13 | 42 | 9.7 | 32.2 | 0.00 | 0.00 | 0.00 | 76 | 1007.7 |
| 20260505194004 | 13 | 13 | 16.1 | 32.2 | 0.00 | 0.00 | 0.00 | 76 | 1007.6 |
| 20260505193507 | 13 | 22 | 12.9 | 29.0 | 0.00 | 0.00 | 0.00 | 76 | 1007.7 |
| 20260505193009 | 13 | 358 | 14.5 | 24.1 | 0.00 | 0.00 | 0.00 | 77 | 1007.8 |
| 20260505192507 | 13 | 17 | 11.3 | 24.1 | 0.00 | 0.00 | 0.00 | 77 | 1007.7 |
| 20260505192004 | 13 | 14 | 8.0 | 29.0 | 0.00 | 0.00 | 0.00 | 78 | 1007.5 |
| 20260505191503 | 13 | 325 | 6.4 | 29.0 | 0.00 | 0.00 | 0.00 | 78 | 1007.4 |
| 20260505191008 | 13 | 316 | 12.9 | 27.4 | 0.00 | 0.00 | 0.00 | 78 | 1007.4 |
| 20260505190503 | 13 | 6 | 11.3 | 30.6 | 0.00 | 0.00 | 0.00 | 78 | 1007.2 |
| 20260505190004 | 13 | 11 | 11.3 | 30.6 | 0.00 | 0.00 | 0.00 | 78 | 1007.3 |
| 20260505185508 | 13 | 30 | 6.4 | 30.6 | 0.00 | 0.00 | 0.00 | 79 | 1007.0 |
| 20260505185005 | 13 | 56 | 12.9 | 30.6 | 0.00 | 0.00 | 0.00 | 78 | 1007.1 |
| 20260505184521 | 13 | 9 | 11.3 | 33.8 | 0.00 | 0.00 | 0.00 | 78 | 1007.1 |
| 20260505184007 | 13 | 17 | 9.7 | 33.8 | 0.00 | 0.00 | 0.00 | 79 | 1007.1 |
| 20260505183503 | 13 | 256 | 9.7 | 22.5 | 0.00 | 0.00 | 0.00 | 79 | 1007.1 |
| 20260505183019 | 13 | 42 | 12.9 | 25.7 | 0.00 | 0.00 | 0.00 | 80 | 1007.1 |
| 20260505182513 | 13 | 354 | 12.9 | 25.7 | 0.00 | 0.00 | 0.00 | 80 | 1007.2 |
| 20260505182004 | 13 | 21 | 11.3 | 27.4 | 0.00 | 0.00 | 0.00 | 80 | 1007.1 |
| 20260505181518 | 13 | 351 | 8.0 | 33.8 | 0.00 | 0.00 | 0.00 | 80 | 1007.3 |
| 20260505181007 | 13 | 13 | 16.1 | 30.6 | 0.00 | 0.00 | 0.00 | 80 | 1007.2 |
| 20260505180507 | 13 | 13 | 12.9 | 29.0 | 0.00 | 0.00 | 0.00 | 80 | 1007.2 |
| 20260505180015 | 13 | 19 | 8.0 | 27.4 | 0.00 | 0.00 | 0.00 | 80 | 1007.1 |
| 20260505175503 | 13 | 15 | 12.9 | 27.4 | 0.00 | 0.00 | 0.00 | 80 | 1006.5 |
| 20260505175009 | 13 | 31 | 14.5 | 27.4 | 0.00 | 0.00 | 0.00 | 1006.0 | |
| 20260505174518 | 13 | 348 | 12.9 | 30.6 | 0.00 | 0.00 | 0.00 | 80 | 1006.0 |
| 20260505174007 | 13 | 24 | 16.1 | 30.6 | 0.00 | 0.00 | 0.00 | 80 | 1006.1 |
| 20260505173507 | 13 | 31 | 12.9 | 32.2 | 0.00 | 0.00 | 0.00 | 80 | 1006.1 |
| 20260505173009 | 13 | 25 | 16.1 | 32.2 | 0.00 | 0.00 | 0.00 | 80 | 1006.1 |
| 20260505172510 | 13 | 40 | 14.5 | 29.0 | 0.00 | 0.00 | 0.00 | 80 | 1006.1 |
| 20260505172008 | 13 | 24 | 9.7 | 24.1 | 0.00 | 0.00 | 0.00 | 81 | 1006.2 |
| 20260505171511 | 13 | 18 | 12.9 | 20.9 | 0.00 | 0.00 | 0.00 | 81 | 1006.2 |
| 20260505171010 | 14 | 9 | 6.4 | 32.2 | 0.00 | 0.00 | 0.00 | 81 | 1006.0 |
| 20260505170508 | 14 | 41 | 14.5 | 32.2 | 0.00 | 0.00 | 0.00 | 81 | 1005.8 |
| 20260505170004 | 14 | 17 | 12.9 | 29.0 | 0.00 | 0.00 | 0.00 | 81 | 1005.6 |
| 20260505165507 | 14 | 22 | 12.9 | 27.4 | 0.00 | 0.00 | 0.00 | 81 | 1005.6 |
| 20260505165003 | 15 | 22 | 14.5 | 25.7 | 0.00 | 0.00 | 0.00 | 81 | 1005.5 |
| 20260505164526 | 15 | 15 | 11.3 | 30.6 | 0.00 | 0.00 | 0.00 | 81 | 1005.4 |
| 20260505164006 | 15 | 12 | 17.7 | 30.6 | 0.00 | 0.00 | 0.00 | 81 | 1005.2 |
| 20260505163503 | 15 | 33 | 17.7 | 32.2 | 0.00 | 0.00 | 0.00 | 81 | 1005.3 |
| 20260505163019 | 15 | 15 | 12.9 | 33.8 | 0.00 | 0.00 | 0.00 | 80 | 1005.2 |
| 20260505162507 | 15 | 356 | 11.3 | 33.8 | 0.00 | 0.00 | 0.00 | 80 | 1005.2 |
| 20260505162012 | 16 | 11 | 9.7 | 29.0 | 0.00 | 0.00 | 0.00 | 80 | 1005.4 |
| 20260505161518 | 16 | 19 | 9.7 | 29.0 | 0.00 | 0.00 | 0.00 | 79 | 1005.2 |
| 20260505161004 | 16 | 25 | 11.3 | 25.7 | 0.00 | 0.00 | 0.00 | 79 | 1004.9 |
| 20260505160511 | 16 | 31 | 14.5 | 29.0 | 0.00 | 0.00 | 0.00 | 78 | 1004.9 |
| 20260505153028 | 21 | 38 | 9.7 | 17.7 | 0.00 | 0.00 | 0.00 | 75 | 1004.2 |
| 20260505152511 | 21 | 331 | 3.2 | 9.7 | 0.00 | 0.00 | 0.00 | 76 | 1004.1 |
| 20260505152011 | 21 | 100 | 0.0 | 9.7 | 0.00 | 0.00 | 0.00 | 75 | 1004.0 |
| 20260505151510 | 21 | 80 | 4.8 | 9.7 | 0.00 | 0.00 | 0.00 | 75 | 1003.9 |
| 20260505151008 | 22 | 93 | 0.0 | 12.9 | 0.00 | 0.00 | 0.00 | 75 | 1003.8 |
| 20260505150506 | 22 | 133 | 3.2 | 12.9 | 0.00 | 0.00 | 0.00 | 74 | 1003.7 |
| 20260505140507 | 20 | 125 | 11.3 | 29.0 | 0.00 | 0.00 | 0.00 | 78 | 1003.2 |
| 20260505125011 | 18 | 91 | 8.0 | 16.1 | 0.00 | 0.00 | 0.00 | 79 | 1003.8 |
| 20260505124527 | 18 | 117 | 6.4 | 16.1 | 0.00 | 0.00 | 0.00 | 79 | 1003.8 |
| 20260505124013 | 18 | 99 | 9.7 | 19.3 | 0.00 | 0.00 | 0.00 | 79 | 1003.8 |
| 20260505123509 | 18 | 58 | 11.3 | 19.3 | 0.00 | 0.00 | 0.00 | 79 | 1003.7 |
| 20260505123041 | 18 | 85 | 4.8 | 29.0 | 0.00 | 0.00 | 0.00 | 79 | 1003.6 |
| 20260505122510 | 18 | 86 | 12.9 | 29.0 | 0.00 | 0.00 | 0.00 | 79 | 1003.4 |
| 20260505122018 | 18 | 106 | 12.9 | 22.5 | 0.00 | 0.00 | 0.00 | 79 | 1003.4 |
| 20260505121526 | 18 | 52 | 12.9 | 22.5 | 0.00 | 0.00 | 0.00 | 79 | 1003.4 |
| 20260505121007 | 18 | 88 | 9.7 | 19.3 | 0.00 | 0.00 | 0.00 | 79 | 1003.4 |
| 20260505120509 | 18 | 23 | 8.0 | 19.3 | 0.00 | 0.00 | 0.00 | 79 | 1003.3 |
| 20260505120023 | 18 | 42 | 8.0 | 19.3 | 0.00 | 0.00 | 0.00 | 79 | 1003.4 |
| 20260505115507 | 18 | 71 | 11.3 | 20.9 | 0.00 | 0.00 | 0.00 | 79 | 1003.3 |
| 20260505115009 | 18 | 37 | 8.0 | 20.9 | 0.00 | 0.00 | 0.00 | 79 | 1003.2 |
| 20260505114523 | 18 | 95 | 11.3 | 20.9 | 0.00 | 0.00 | 0.00 | 79 | 1003.2 |
| 20260505114009 | 18 | 100 | 8.0 | 17.7 | 0.00 | 0.00 | 0.00 | 79 | 1003.3 |
| 20260505113508 | 18 | 65 | 8.0 | 17.7 | 0.00 | 0.00 | 0.00 | 79 | 1003.2 |
| 20260505113018 | 18 | 48 | 4.8 | 17.7 | 0.00 | 0.00 | 0.00 | 79 | 1003.2 |
| 20260505112512 | 18 | 19 | 8.0 | 16.1 | 0.00 | 0.00 | 0.00 | 79 | 1003.1 |
| 20260505112010 | 18 | 8 | 6.4 | 16.1 | 0.00 | 0.00 | 0.00 | 79 | 1003.0 |
| 20260505111520 | 18 | 79 | 8.0 | 17.7 | 0.00 | 0.00 | 0.00 | 79 | 1003.0 |
| 20260505111004 | 18 | 62 | 8.0 | 19.3 | 0.00 | 0.00 | 0.00 | 79 | 1002.9 |
| 20260505110509 | 18 | 79 | 11.3 | 19.3 | 0.00 | 0.00 | 0.00 | 79 | 1002.7 |
| 20260505102007 | 18 | 71 | 8.0 | 17.7 | 0.00 | 0.00 | 0.00 | 79 | 1002.2 |
| 20260505101508 | 18 | 45 | 4.8 | 17.7 | 0.00 | 0.00 | 0.00 | 79 | 1002.2 |
| 20260505101009 | 18 | 94 | 6.4 | 16.1 | 0.00 | 0.00 | 0.00 | 79 | 1002.2 |
| 20260505100507 | 18 | 81 | 6.4 | 16.1 | 0.00 | 0.00 | 0.00 | 79 | 1002.1 |
| 20260505100005 | 18 | 85 | 8.0 | 19.3 | 0.00 | 0.00 | 0.00 | 79 | 1002.0 |
| 20260505095512 | 18 | 79 | 4.8 | 19.3 | 0.00 | 0.00 | 0.00 | 79 | 1002.0 |
| 20260505095007 | 18 | 69 | 6.4 | 17.7 | 0.00 | 0.00 | 0.00 | 79 | 1001.9 |
| 20260505094526 | 18 | 55 | 9.7 | 17.7 | 0.00 | 0.00 | 0.00 | 79 | 1001.9 |
| 20260505094010 | 18 | 75 | 9.7 | 16.1 | 0.00 | 0.00 | 0.00 | 79 | 1002.1 |
| 20260505093505 | 18 | 71 | 6.4 | 19.3 | 0.00 | 0.00 | 0.00 | 79 | 1002.0 |
| 20260505093022 | 18 | 50 | 6.4 | 20.9 | 0.00 | 0.00 | 0.00 | 78 | 1002.1 |
| 20260505092508 | 18 | 67 | 11.3 | 20.9 | 0.00 | 0.00 | 0.00 | 78 | 1002.1 |
| 20260505092004 | 18 | 76 | 4.8 | 20.9 | 0.00 | 0.00 | 0.00 | 78 | 1002.1 |
| 20260505091522 | 19 | 71 | 11.3 | 20.9 | 0.00 | 0.00 | 0.00 | 77 | 1002.2 |
| 20260505091007 | 19 | 75 | 6.4 | 14.5 | 0.00 | 0.00 | 0.00 | 77 | 1002.2 |
| 20260505090510 | 19 | 69 | 8.0 | 16.1 | 0.00 | 0.00 | 0.00 | 76 | 1002.3 |
| 20260505090016 | 19 | 65 | 6.4 | 17.7 | 0.00 | 0.00 | 0.00 | 76 | 1002.4 |
| 20260505085503 | 19 | 80 | 6.4 | 17.7 | 0.00 | 0.00 | 0.00 | 76 | 1002.4 |
| 20260505085007 | 20 | 43 | 8.0 | 17.7 | 0.00 | 0.00 | 0.00 | 75 | 1002.4 |
| 20260505084517 | 20 | 69 | 6.4 | 14.5 | 0.00 | 0.00 | 0.00 | 75 | 1002.4 |
| 20260505084002 | 20 | 50 | 6.4 | 14.5 | 0.00 | 0.00 | 0.00 | 75 | 1002.2 |
| 20260505083507 | 20 | 85 | 8.0 | 16.1 | 0.00 | 0.00 | 0.00 | 75 | 1002.3 |
| 20260505083012 | 20 | 82 | 6.4 | 17.7 | 0.00 | 0.00 | 0.00 | 75 | 1002.4 |
| 20260505082510 | 20 | 94 | 9.7 | 16.1 | 0.00 | 0.00 | 0.00 | 74 | 1002.4 |
| 20260505082011 | 20 | 76 | 4.8 | 17.7 | 0.00 | 0.00 | 0.00 | 74 | 1002.4 |
| 20260505081508 | 20 | 98 | 4.8 | 17.7 | 0.00 | 0.00 | 0.00 | 74 | 1002.4 |
| 20260505081010 | 20 | 98 | 11.3 | 24.1 | 0.00 | 0.00 | 0.00 | 74 | 1002.3 |
| 20260505080510 | 20 | 104 | 12.9 | 24.1 | 0.00 | 0.00 | 0.00 | 75 | 1002.4 |
| 20260505080007 | 20 | 42 | 6.4 | 19.3 | 0.00 | 0.00 | 0.00 | 75 | 1002.4 |
| 20260505075510 | 20 | 79 | 8.0 | 14.5 | 0.00 | 0.00 | 0.00 | 75 | 1002.5 |
| 20260505075006 | 20 | 68 | 4.8 | 17.7 | 0.00 | 0.00 | 0.00 | 75 | 1002.7 |
| 20260505074007 | 20 | 34 | 8.0 | 16.1 | 0.00 | 0.00 | 0.00 | 75 | 1002.8 |
| 20260505073505 | 20 | 85 | 8.0 | 16.1 | 0.00 | 0.00 | 0.00 | 75 | 1003.0 |
| 20260505073024 | 20 | 53 | 6.4 | 12.9 | 0.00 | 0.00 | 0.00 | 75 | 1003.1 |
| 20260505072508 | 19 | 54 | 6.4 | 11.3 | 0.00 | 0.00 | 0.00 | 75 | 1003.1 |
| 20260505072010 | 19 | 56 | 6.4 | 12.9 | 0.00 | 0.00 | 0.00 | 75 | 1003.0 |
| 20260505071540 | 19 | 59 | 6.4 | 12.9 | 0.00 | 0.00 | 0.00 | 75 | 1003.2 |
| 20260505071006 | 19 | 44 | 8.0 | 14.5 | 0.00 | 0.00 | 0.00 | 75 | 1003.3 |
| 20260505070512 | 19 | 31 | 4.8 | 14.5 | 0.00 | 0.00 | 0.00 | 75 | 1003.3 |
| 20260505070018 | 19 | 63 | 3.2 | 9.7 | 0.00 | 0.00 | 0.00 | 75 | 1003.1 |
| 20260505065507 | 19 | 53 | 3.2 | 9.7 | 0.00 | 0.00 | 0.00 | 75 | 1003.4 |
| 20260505065007 | 19 | 29 | 3.2 | 9.7 | 0.00 | 0.00 | 0.00 | 75 | 1003.6 |
| 20260505064518 | 19 | 29 | 4.8 | 8.0 | 0.00 | 0.00 | 0.00 | 75 | 1003.7 |
| 20260505064012 | 19 | 36 | 1.6 | 6.4 | 0.00 | 0.00 | 0.00 | 74 | 1003.6 |
| 20260505063507 | 19 | 36 | 0.0 | 6.4 | 0.00 | 0.00 | 0.00 | 74 | 1003.6 |
| 20260505063015 | 20 | 94 | 1.6 | 4.8 | 0.00 | 0.00 | 0.00 | 74 | 1003.6 |
| 20260505062512 | 20 | 143 | 1.6 | 4.8 | 0.00 | 0.00 | 0.00 | 74 | 1003.4 |
| 20260505062008 | 20 | 144 | 0.0 | 9.7 | 0.00 | 0.00 | 0.00 | 74 | 1003.0 |
| 20260505061512 | 20 | 150 | 1.6 | 9.7 | 0.00 | 0.00 | 0.00 | 73 | 1002.6 |
| 20260505061007 | 20 | 150 | 6.4 | 14.5 | 0.00 | 0.00 | 0.00 | 73 | 1002.4 |
| 20260505060506 | 20 | 166 | 6.4 | 16.1 | 0.00 | 0.00 | 0.00 | 73 | 1002.4 |
| 20260505060010 | 20 | 139 | 6.4 | 16.1 | 0.00 | 0.00 | 0.00 | 73 | 1002.3 |
| 20260505055507 | 20 | 181 | 6.4 | 17.7 | 0.00 | 0.00 | 0.00 | 73 | 1002.4 |
| 20260505055007 | 20 | 193 | 8.0 | 19.3 | 0.00 | 0.00 | 0.00 | 72 | 1002.5 |
| 20260505054516 | 20 | 158 | 9.7 | 19.3 | 0.00 | 0.00 | 0.00 | 72 | 1002.6 |
| 20260505054008 | 20 | 158 | 6.4 | 22.5 | 0.00 | 0.00 | 0.00 | 72 | 1002.7 |
| 20260505053509 | 20 | 162 | 6.4 | 22.5 | 0.00 | 0.00 | 0.00 | 71 | 1002.8 |
| 20260505053005 | 20 | 174 | 6.4 | 17.7 | 0.00 | 0.00 | 0.00 | 71 | 1002.9 |
| 20260505052505 | 20 | 173 | 9.7 | 17.7 | 0.00 | 0.00 | 0.00 | 71 | 1002.8 |
| 20260505052007 | 20 | 124 | 9.7 | 19.3 | 0.00 | 0.00 | 0.00 | 70 | 1002.9 |
| 20260505051512 | 20 | 157 | 11.3 | 20.9 | 0.00 | 0.00 | 0.00 | 70 | 1003.0 |
| 20260505051007 | 20 | 159 | 9.7 | 20.9 | 0.00 | 0.00 | 0.00 | 71 | 1002.8 |
| 20260505050503 | 20 | 154 | 8.0 | 17.7 | 0.00 | 0.00 | 0.00 | 71 | 1002.9 |
| 20260505041511 | 20 | 125 | 9.7 | 22.5 | 0.00 | 0.00 | 0.00 | 69 | 1002.9 |
| 20260505041004 | 20 | 159 | 6.4 | 20.9 | 0.00 | 0.00 | 0.00 | 69 | 1003.1 |
| 20260505040508 | 20 | 148 | 4.8 | 20.9 | 0.00 | 0.00 | 0.00 | 69 | 1003.2 |
| 20260505040016 | 20 | 136 | 6.4 | 20.9 | 0.00 | 0.00 | 0.00 | 69 | 1003.1 |
| 20260505035507 | 20 | 188 | 8.0 | 20.9 | 0.00 | 0.00 | 0.00 | 69 | 1003.0 |
| 20260505035011 | 20 | 110 | 6.4 | 22.5 | 0.00 | 0.00 | 0.00 | 68 | 1003.3 |
| 20260505034517 | 20 | 167 | 8.0 | 27.4 | 0.00 | 0.00 | 0.00 | 68 | 1003.2 |
| 20260505034007 | 20 | 157 | 12.9 | 27.4 | 0.00 | 0.00 | 0.00 | 67 | 1003.4 |
| 20260505033507 | 21 | 183 | 8.0 | 20.9 | 0.00 | 0.00 | 0.00 | 65 | 1003.5 |
| 20260505033010 | 21 | 108 | 8.0 | 20.9 | 0.00 | 0.00 | 0.00 | 64 | 1003.6 |
| 20260505032506 | 21 | 181 | 9.7 | 20.9 | 0.00 | 0.00 | 0.00 | 64 | 1003.5 |
| 20260505032008 | 21 | 146 | 9.7 | 22.5 | 0.00 | 0.00 | 0.00 | 64 | 1003.8 |
| 20260505031516 | 21 | 175 | 11.3 | 22.5 | 0.00 | 0.00 | 0.00 | 64 | 1003.7 |
| 20260505031007 | 21 | 123 | 8.0 | 20.9 | 0.00 | 0.00 | 0.00 | 64 | 1003.8 |
| 20260505025512 | 21 | 142 | 6.4 | 17.7 | 0.00 | 0.00 | 0.00 | 63 | 1004.1 |
| 20260505025004 | 21 | 115 | 8.0 | 17.7 | 0.00 | 0.00 | 0.00 | 62 | 1004.1 |
| 20260505024518 | 21 | 107 | 8.0 | 16.1 | 0.00 | 0.00 | 0.00 | 62 | 1004.0 |
| 20260505024009 | 21 | 119 | 4.8 | 20.9 | 0.00 | 0.00 | 0.00 | 61 | 1004.2 |
| 20260505023507 | 21 | 165 | 4.8 | 20.9 | 0.00 | 0.00 | 0.00 | 61 | 1004.2 |
| 20260505023019 | 21 | 160 | 6.4 | 17.7 | 0.00 | 0.00 | 0.00 | 61 | 1004.1 |
| 20260505022506 | 22 | 175 | 9.7 | 19.3 | 0.00 | 0.00 | 0.00 | 60 | 1004.0 |
| 20260505022010 | 22 | 154 | 12.9 | 19.3 | 0.00 | 0.00 | 0.00 | 60 | 1003.9 |
| 20260505021523 | 22 | 142 | 11.3 | 24.1 | 0.00 | 0.00 | 0.00 | 60 | 1004.0 |
| 20260505021007 | 22 | 150 | 11.3 | 24.1 | 0.00 | 0.00 | 0.00 | 60 | 1003.9 |
| 20260505020507 | 22 | 123 | 12.9 | 24.1 | 0.00 | 0.00 | 0.00 | 60 | 1004.1 |
| 20260505020018 | 22 | 141 | 8.0 | 19.3 | 0.00 | 0.00 | 0.00 | 59 | 1004.0 |
| 20260505015507 | 22 | 154 | 6.4 | 19.3 | 0.00 | 0.00 | 0.00 | 59 | 1004.0 |